Weather History for Fullerton, CA

Change the Weather History Date:

Monday, March 5, 2012

  Actual Average Record
Temperature  
Mean Temperature 70 °F 60 °F  
Max Temperature 83 °F 69 °F 84 °F (2007)
Min Temperature 56 °F 50 °F 42 °F (2006)
Degree Days  
Heating Degree Days 0 6  
Month to date heating degree days 10 30  
Since 1 July heating degree days 700 952  
Cooling Degree Days 5 1  
Month to date cooling degree days 14 2  
Year to date cooling degree days 44 11  
Growing Degree Days 20 (Base 50)    
Moisture  
Dew Point 42 °F    
Average Humidity 32    
Maximum Humidity 47    
Minimum Humidity 17    
Precipitation  
Precipitation 0.00 in 0.14 in 0.91 in (1970)
Month to date precipitation 0.00 0.76  
Year to date precipitation 1.43 7.04  
Since 1 July precipitation 4.10 11.27  
Snow  
Snow 0.00 in - - ()
Month to date snowfall 0.0  
Year to date snowfall 0.0  
Since 1 July snowfall 0.0  
Snow Depth 0.00 in    
Sea Level Pressure  
Sea Level Pressure 29.96 in    
Wind  
Wind Speed 1 mph (South)    
Max Wind Speed 8 mph    
Max Gust Speed 10 mph    
Visibility 9 miles    
Events      
T = Trace of Precipitation, MM = Missing Value Source: NWS Daily Summary

Daily Weather History Graph

Daily Weather History Graph

Search for Another Location

Airport:

Trip Planner

Search our weather history database for the weather conditions in past years. The results will help you decide how hot, cold, wet, or windy it might be!

Date:

Astronomy

Mar. 05, 2012 Rise Set
Actual Time 6:14 AM PST 5:52 PM PST
Civil Twilight 5:49 AM PST 6:17 PM PST
Nautical Twilight 5:20 AM PST 6:46 PM PST
Astronomical Twilight 4:51 AM PST 7:15 PM PST
Moon 3:21 PM PST (3/5) 4:10 AM PST (3/5)
Length of Visible Light 12h 27m
Length of Day
11h 37m
Waxing Gibbous, 91% of the Moon is Illuminated
Mar 5
Waxing Gibbous
Mar 8
Full
Mar 14
Last Quarter
Mar 22
New
Mar 30
First Quarter

Hourly Weather History & Observations

Time (PST) Temp. Dew Point Humidity Pressure Visibility Wind Dir Wind Speed Gust Speed Precip Events Conditions
12:53 AM 60.1 °F 39.0 °F 46% 29.98 in 10.0 mi Calm Calm - N/A   Clear
1:53 AM 57.9 °F 37.0 °F 46% 29.96 in 10.0 mi Calm Calm - N/A   Clear
2:53 AM 59.0 °F 37.0 °F 44% 29.96 in 10.0 mi Calm Calm - N/A   Clear
3:53 AM 59.0 °F 35.1 °F 41% 29.95 in 10.0 mi Calm Calm - N/A   Clear
4:53 AM 57.9 °F 35.1 °F 42% 29.96 in 10.0 mi Calm Calm - N/A   Clear
5:53 AM 57.0 °F 36.0 °F 45% 29.97 in 10.0 mi Calm Calm - N/A   Clear
6:53 AM 57.9 °F 34.0 °F 41% 29.97 in 10.0 mi East 3.5 mph - N/A   Mostly Cloudy
7:53 AM 63.0 °F 35.1 °F 35% 30.00 in 10.0 mi Calm Calm - N/A   Clear
8:53 AM 66.9 °F 35.1 °F 31% 30.01 in 10.0 mi Calm Calm - N/A   Clear
9:53 AM 70.0 °F 35.1 °F 28% 30.01 in 10.0 mi Calm Calm - N/A   Clear
10:53 AM 73.9 °F 37.9 °F 27% 30.01 in 10.0 mi Calm Calm - N/A   Clear
11:53 AM 80.1 °F 35.1 °F 20% 30.00 in 10.0 mi Variable 3.5 mph - N/A   Clear
12:53 PM 80.1 °F 36.0 °F 20% 29.97 in 10.0 mi WSW 4.6 mph - N/A   Clear
1:53 PM 82.0 °F 34.0 °F 18% 29.94 in 10.0 mi Variable 5.8 mph - N/A   Clear
2:53 PM 78.1 °F 41.0 °F 27% 29.92 in 10.0 mi SSW 4.6 mph - N/A   Clear
3:53 PM 78.1 °F 33.1 °F 19% 29.92 in 10.0 mi Variable 5.8 mph - N/A   Clear
4:53 PM 72.0 °F 39.9 °F 31% 29.92 in 10.0 mi South 5.8 mph - N/A   Clear
5:53 PM 69.1 °F 46.9 °F 45% 29.93 in 10.0 mi SSW 3.5 mph - N/A   Clear
6:53 PM 64.9 °F 48.9 °F 56% 29.94 in 10.0 mi SSE 4.6 mph - N/A   Clear
7:53 PM 63.0 °F 46.9 °F 56% 29.95 in 10.0 mi Calm Calm - N/A   Clear
8:53 PM 61.0 °F 48.0 °F 62% 29.96 in 10.0 mi Calm Calm - N/A   Clear
9:53 PM 60.1 °F 51.1 °F 72% 29.96 in 10.0 mi Calm Calm - N/A   Clear
10:51 PM 59.0 °F 51.8 °F 77% 29.96 in 9.0 mi South 4.6 mph - N/A   Scattered Clouds
10:53 PM 59.0 °F 52.0 °F 78% 29.96 in 8.0 mi South 4.6 mph - N/A   Scattered Clouds
11:00 PM 59.0 °F 53.6 °F 82% 29.96 in 6.0 mi Calm Calm - N/A   Haze
11:08 PM 59.0 °F 53.6 °F 82% 29.96 in 6.0 mi South 3.5 mph - N/A   Haze
11:53 PM 57.9 °F 54.0 °F 87% 29.95 in 4.0 mi South 4.6 mph - N/A   Overcast